FW8212 Weather Reports


time (UTC)temp
C
wind
direction
speed
KPH
gust
KPH
rain 1hr
cm
rain 24hr
cm
rain mn
cm
humidity
%
barometer
mb
20260504081530 10 10 25.7 37.0 0.00 0.00 0.00 45 1009.7
20260504044537 16 321 6.4 12.9 0.00 0.00 0.00 34 1008.1
20260504043040 16 321 4.8 8.0 0.00 0.00 0.00 33 1008.1
20260504041532 16 321 6.4 9.7 0.00 0.00 0.00 34 1008.1
20260504040033 16 321 6.4 12.9 0.00 0.00 0.00 34 1008.0
20260504034534 16 321 9.7 14.5 0.00 0.00 0.00 33 1008.0
20260504033037 16 321 8.0 12.9 0.00 0.00 0.00 31 1007.9
20260504031531 16 321 8.0 9.7 0.00 0.00 0.00 30 1007.5
20260504030030 16 321 6.4 8.0 0.00 0.00 0.00 29 1007.4
20260504024530 16 321 8.0 9.7 0.00 0.00 0.00 29 1007.3
20260504023031 17 321 8.0 12.9 0.00 0.00 0.00 28 1007.2
20260504021535 18 321 8.0 16.1 0.00 0.00 0.00 26 1007.2
20260504020037 19 321 11.3 17.7 0.00 0.00 0.00 24 1007.2
20260504014536 20 310 14.5 24.1 0.00 0.00 0.00 23 1007.2
20260504013031 20 309 11.3 17.7 0.00 0.00 0.00 27 1007.1
20260504011533 21 309 14.5 22.5 0.00 0.00 0.00 27 1007.1
20260504010030 21 306 8.0 19.3 0.00 0.00 0.00 29 1007.2
20260504004534 21 306 11.3 17.7 0.00 0.00 0.00 29 1007.2
20260504003032 21 303 12.9 20.9 0.00 0.00 0.00 29 1007.3
20260504001535 21 302 16.1 24.1 0.00 0.00 0.00 26 1007.3
20260504000037 22 292 11.3 22.5 0.00 0.00 0.00 25 1007.4
20260503234530 22 292 14.5 22.5 0.00 0.00 0.00 24 1007.6
20260503233030 22 290 12.9 25.7 0.00 0.00 0.00 24 1007.7
20260503231532 22 291 17.7 25.7 0.00 0.00 0.00 23 1008.0
20260503230034 22 293 8.0 25.7 0.00 0.00 0.00 24 1008.5
20260503224533 22 311 8.0 22.5 0.00 0.00 0.00 25 1008.5
20260503223032 22 309 14.5 24.1 0.00 0.00 0.00 24 1008.7
20260503221533 22 279 11.3 19.3 0.00 0.00 0.00 24 1008.9
20260503220033 22 294 14.5 22.5 0.00 0.00 0.00 25 1009.1
20260503214540 21 302 16.1 22.5 0.00 0.00 0.00 25 1009.3
20260503213031 22 298 14.5 25.7 0.00 0.00 0.00 23 1009.6
20260503211534 21 279 11.3 24.1 0.00 0.00 0.00 26 1009.9
20260503210033 21 280 12.9 19.3 0.00 0.00 0.00 26 1010.1
20260503204534 21 279 12.9 27.4 0.00 0.00 0.00 30 1010.5
20260503203036 21 283 9.7 19.3 0.00 0.00 0.00 29 1010.8
20260503201532 20 282 11.3 24.1 0.00 0.00 0.00 28 1011.0
20260503200051 20 282 8.0 20.9 0.00 0.00 0.00 29 1011.3
20260503194532 20 283 14.5 22.5 0.00 0.00 0.00 30 1011.5
20260503193037 20 282 19.3 25.7 0.00 0.00 0.00 29 1011.7
20260503191531 20 283 19.3 29.0 0.00 0.00 0.00 28 1012.0
20260503190032 19 286 12.9 27.4 0.00 0.00 0.00 30 1012.3
20260503184540 19 287 17.7 29.0 0.00 0.00 0.00 30 1012.5
20260503183035 19 313 17.7 25.7 0.00 0.00 0.00 30 1012.8
20260503181530 18 315 9.7 25.7 0.00 0.00 0.00 35 1013.0
20260503180044 17 315 8.0 19.3 0.00 0.00 0.00 37 1013.2
20260503174544 18 315 11.3 17.7 0.00 0.00 0.00 37 1013.4
20260503173046 17 315 4.8 19.3 0.00 0.00 0.00 42 1013.6
20260503171534 17 314 12.9 20.9 0.00 0.00 0.00 43 1013.8